User: anonymous   Login
Location: Fort Wayne
(41.1310°N, 85.1290°W)
Time: 02:33:38
(UTC-04:00)
Language:

Cosmos 1000 Rocket - Orbit

View from above orbital plane
View from above orbital plane
View from above satellite
View from above satellite

Ground track
Ground track

The orbit data is extracted from the following two-line orbital elements,

1 10777U 78034B   15091.53061714  .00000205  00000-0  19096-3 0  9992
2 10777 082.9394 111.2853 0024876 302.1007 213.0267 13.77334549859201
Epoch (UTC): 01 April 2015 12:44:05
Eccentricity: 0.0024876
inclination: 82.9394°
perigee height: 955 km
apogee height: 991 km
right ascension of ascending node: 111.2853°
argument of perigee: 302.1007°
revolutions per day: 13.77334549
mean anomaly at epoch: 213.0267°
orbit number at epoch: 85920

The dashed part of the orbit path shows where the satellite is in the earth's shadow,  

DLR